OBJECT G, 59779

Orbit data source: Space-Track

You're viewing an Uncataloged Satellite

Recently launched and/or uncataloged satellites may have evolving metadata. Metadata may include but not limited to: Owner, Maufacturer, Bus, Motor, and Mission.

OBJECT G, 59779 is a satellite owned by Byuro 1440 (CIS) in SSO that was launched on Thu, 16 May 2024 UTC via a SOYUZ-2-1B launch vehicle from the Plesetsk Missile And Space Complex (PKMTR). Unknown objects in Earth's orbit typically refer to objects detected orbiting the Earth but have not yet been identified or cataloged. These objects could be anything from previously untracked satellites, spent rocket stages, debris from satellite collisions, or even natural meteoroids temporarily captured by Earth's gravity.

Loading next visibility...
Identifier
59779, 2024-092G
Orbit
SSO
Last TLE update
5 hours ago
Origin
Flag of CISBureau 1440 (CIS)
Manufacturer
Byuro 1440
Mission
Operational spacecraft
Bus & Motor
RASSVET-2, Unknown motor
Mass
~200 kg wet, ~200 kg dry
Launch date (UTC)
2024-05-16 (1 year ago)
Launch vehicle
SOYUZ-2-1B
Launch site
Plesetsk Missile And Space Complex (PKMTR)
Object type
Unknown
Shape & HBR
Unknown
Radar Cross Section
Large (>1 m²)

Expand to show TLE details & history

TLE from 5 hours ago
0 OBJECT G
1 59779U 24092G   25182.19299558  .00000159  00000-0  76225-4 0  9991
2 59779  98.6388 297.3472 0012747 157.4224 202.7522 14.31623447 58672
Epoch: 2025-07-01T04:37Z
TLE epoch observation values (Epoch: 2025-07-01T04:37:54.818Z)
Latitude
-0.00004°
Longitude
-51.62317°
Altitude
797.667 km
Speed
7.45 km/s
True Right ascension
19h 49m 23s
True Declination
0° 00' 00"
Sunlit
Object was in full shadow at epoch
Visualization orbit readout
Latitude
77.04459°
Longitude
-92.4638°
Altitude
797.203 km
Speed
7.463 km/s
Apparent Right ascension
10h 57m 29s
Apparent Declination
32° 25' 17"
Sunlit
Object is in daylight
Visualization observer readout
Local Sidereal Time
21:40:38
Azimuth
343.245° N
Elevation
-15.506°
Doppler factor
1
Orbital elements
Apogee altitude
792.578 km
Perigee altitude
774.32 km
Semi-major axis
7,161.586 km
Eccentricity
0.00127
Inclination
98.6388°
RAAN
297.3472°
Arg. of periapsis
157.4224°
True anomaly
Unknown
Mean anomaly
202.7522°
Eccentric anomaly
Unknown
Mean motion
3.58121 °/min
Orbital period
100.52 mins
BSTAR
0.000076225
Loading maneuver chart data...
Loading SW <> Apogee altitude chart data...
Loading historical data...
Loading historical data...
Loading historical data...
Loading historical data...
Loading historical data...
Loading historical data...
Loading historical data...

OBJECT G Visibility forecast

Observer location: undefined°, undefined°

Span
Click to sort rows by Start time (UTC) header in descending order
Start Az.
Max El. time (UTC)
Max El. Az.
Max El.
End time (UTC)
End Az.
9 mins2025-07-01 20:18:15.699Z21.878° NNE2025-07-01 20:23:15.699Z123.184° SE40.549°2025-07-01 20:27:15.699Z180.091° SSW
4 mins2025-07-01 22:00:15.699Z318.319° NNW2025-07-01 22:01:15.699Z304.899° NW15.824°2025-07-01 22:04:15.699Z265.718° W
8 mins2025-07-02 07:36:15.699Z161.82° S2025-07-02 07:39:15.699Z133.869° SE44.509°2025-07-02 07:44:15.699Z348.053° N
|